This is the latest recevied weather packets stored in our database for station/object WA4IKQ. If no packets are shown the sender has not sent any weather packets the latest 1 day(s).
| Time | Temp. | Humidity | Pressure | Rain* | Wind** | Luminosity | Snow |
|---|---|---|---|---|---|---|---|
| 1778021614 | 26.67° C | 47% | 1015.3 hPa | 0 mm | 2.24 m/s, 56° | - | - |
| 1778021292 | 26.67° C | 48% | 1015.4 hPa | 0 mm | 2.24 m/s, 17° | - | - |
| 1778020810 | 26.67° C | 48% | 1015.6 hPa | 0 mm | 2.24 m/s, 94° | - | - |
| 1778019779 | 27.22° C | 47% | 1015.6 hPa | 0 mm | 3.13 m/s, 51° | - | - |
| 1778018991 | 27.22° C | 47% | 1015.6 hPa | 0 mm | 2.68 m/s, 4° | - | - |
| 1778018671 | 27.22° C | 47% | 1015.6 hPa | 0 mm | 1.34 m/s, 30° | - | - |
| 1778018129 | 27.22° C | 46% | 1015.6 hPa | 0 mm | 3.13 m/s, 75° | - | - |
| 1778017414 | 27.78° C | 46% | 1015.6 hPa | 0 mm | 2.24 m/s, 94° | - | - |
| 1778016990 | 27.78° C | 45% | 1015.5 hPa | 0 mm | 3.13 m/s, 52° | - | - |
| 1778016628 | 27.78° C | 46% | 1015.3 hPa | 0 mm | 3.13 m/s, 13° | - | - |
| 1778016427 | 27.78° C | 47% | 1015.4 hPa | 0 mm | 1.34 m/s, 340° | - | - |
| 1778015729 | 27.78° C | 47% | 1015.3 hPa | 0 mm | 2.24 m/s, 96° | - | - |
| 1778014773 | 28.33° C | 46% | 1015.2 hPa | 0 mm | 3.13 m/s, 86° | - | - |
| 1778014527 | 28.33° C | 46% | 1015.2 hPa | 0 mm | 3.13 m/s, 86° | - | - |
| 1778013628 | 28.33° C | 45% | 1015.2 hPa | 0 mm | 1.34 m/s, 6° | - | - |
| 1778012729 | 28.89° C | 45% | 1015.3 hPa | 0 mm | 3.13 m/s, 38° | - | - |
| 1778012477 | 28.89° C | 45% | 1015.2 hPa | 0 mm | 2.24 m/s, 14° | - | - |
| 1778012127 | 28.33° C | 45% | 1015.3 hPa | 0 mm | 1.34 m/s, 349° | - | - |
| 1778011274 | 28.33° C | 46% | 1015.6 hPa | 0 mm | 1.79 m/s, 98° | - | - |
| 1778010928 | 28.33° C | 46% | 1015.7 hPa | 0 mm | 1.79 m/s, 66° | - | - |
| 1778010710 | 28.33° C | 46% | 1015.6 hPa | 0 mm | 1.34 m/s, 68° | - | - |
| 1778009427 | 28.89° C | 44% | 1015.8 hPa | 0 mm | 3.13 m/s, 66° | - | - |
| 1778009128 | 29.44° C | 44% | 1015.8 hPa | 0 mm | 2.24 m/s, 100° | - | - |
| 1778008891 | 29.44° C | 44% | 1015.9 hPa | 0 mm | 2.68 m/s, 89° | - | - |
| 1778008581 | 29.44° C | 43% | 1016 hPa | 0 mm | 1.79 m/s, 17° | - | - |
* Rain latest hour (hover to see other rain measurements)
** Current wind speed in m/s (hover to see current wind gust speed)